Wind_Speed
26 28 14 13 16 17 17 17 17 17 17 15 13 13 13 13 13 13 14 14 14 14 13 14 14 13 12 13 13 12 12 12 11 11 10 9 8 10 9 10 12 15 15
19 27 22 15 16 16 16 16 16 15 14 14 14 13 13 12 11 12 13 13 12 12 12 12 13 13 12 11 11 10 11 10 8 9 9 9 8 8 9 9 9 11 13
19 25 27 25 21 16 16 15 14 14 14 13 13 13 12 13 12 10 11 11 12 12 12 12 11 11 11 9 9 9 9 9 8 5 7 9 6 5 8 8 8 9 11
17 20 24 24 21 21 21 19 17 16 15 14 13 12 12 12 12 12 10 10 11 11 11 11 11 10 10 9 7 6 8 9 9 5 4 5 5 3 5 6 7 8 10
14 18 23 23 22 22 21 20 19 19 18 16 14 13 13 13 12 12 11 10 10 11 11 11 10 9 9 8 7 5 6 7 6 5 4 2 1 1 1 3 5 6 6
16 16 21 23 24 24 24 24 22 21 21 21 19 15 12 12 12 12 12 12 12 12 12 11 11 10 8 7 7 6 5 6 5 4 3 2 4 3 3 4 5 5 7
17 18 18 21 24 25 26 25 24 23 22 21 20 19 21 19 14 12 11 11 12 12 12 12 12 11 10 9 7 7 7 6 7 7 6 6 5 8 8 7 7 6 8
17 17 18 17 18 24 24 24 21 19 17 19 20 20 17 14 12 12 11 12 11 12 12 11 11 11 10 10 10 9 9 9 8 8 9 9 9 7 11 10 8 8 8
17 17 17 17 17 17 21 21 18 16 15 16 17 18 17 16 15 14 12 12 13 12 12 12 10 10 11 11 10 11 11 11 12 10 10 10 10 10 10 13 10 9 9
19 19 18 16 16 18 17 17 16 16 17 17 18 17 16 16 15 15 14 15 14 13 14 14 13 12 10 11 11 11 12 12 12 13 13 12 11 10 8 12 11 10 11
22 22 21 19 18 17 18 18 17 17 17 17 19 19 18 18 17 16 14 14 14 15 15 14 14 14 12 10 11 13 13 13 14 14 13 13 14 12 11 10 14 12 11
24 24 23 22 21 19 20 19 20 20 21 21 21 21 19 18 17 15 14 14 15 14 14 14 14 15 15 14 13 13 13 14 15 15 15 15 16 17 16 15 14 14 13
21 22 21 21 21 20 20 20 21 23 23 23 23 23 21 21 20 20 19 20 20 18 18 18 17 16 15 16 16 15 14 14 14 15 16 16 17 18 18 18 17 15 17
22 22 21 21 22 23 23 25 25 26 26 27 26 26 27 26 26 26 25 25 24 24 23 22 20 19 19 17 16 16 17 16 16 17 17 16 17 19 19 19 20 19 17
22 23 23 23 24 24 24 24 24 26 26 25 25 25 26 26 27 26 26 25 25 25 25 25 24 23 22 21 21 20 19 19 19 18 19 20 19 18 21 21 19 20 20
19 21 21 21 21 22 23 23 24 23 23 25 25 25 25 26 26 25 26 26 26 27 26 26 26 27 26 25 24 23 23 22 22 21 21 22 21 21 21 23 23 21 20
18 18 20 21 20 20 21 22 21 23 21 24 25 25 26 26 26 26 25 26 27 28 28 27 28 28 27 28 28 28 25 25 25 25 24 23 23 22 21 21 23 25 24
16 18 19 19 19 19 18 19 20 20 22 22 25 26 26 27 28 27 27 27 28 28 28 29 31 32 32 33 33 32 32 30 29 27 27 26 25 24 24 22 23 25 27
14 15 16 17 19 18 18 17 19 20 23 22 25 27 27 28 28 29 28 29 29 30 30 31 31 29 34 35 30 37 36 34 31 31 30 28 28 27 26 25 24 23 25
12 13 14 16 19 19 19 19 21 24 23 24 27 28 28 29 29 29 29 29 30 31 31 31 31 31 29 26 34 36 33 35 35 34 33 31 28 28 28 28 27 27 25
10 12 15 17 20 22 25 28 28 29 25 25 27 28 28 29 29 29 28 29 29 30 29 28 26 27 26 25 25 28 26 31 20 20 18 20 22 23 23 24 25 26 27
9 10 13 17 18 21 22 22 21 23 22 22 28 29 28 29 28 28 28 29 29 29 29 28 27 25 19 21 14 18 6 10 10 11 17 12 10 11 8 8 12 14 17
7 9 11 14 15 17 19 21 23 24 27 27 32 31 30 29 29 28 27 26 27 28 29 28 26 19 19 20 13 6 4 3 20 16 18 23 23 24 25 24 20 18 18
6 6 7 10 13 15 17 20 21 20 22 25 27 28 29 28 28 28 29 28 28 28 28 27 20 24 20 18 17 9 15 17 4 8 10 27 38 26 22 24 25 24 20
4 5 7 10 13 16 18 19 19 21 22 25 27 29 30 30 31 31 31 30 31 30 28 28 27 24 22 21 18 18 19 19 21 12 15 16 23 24 27 33 27 29 29
3 4 8 13 14 15 18 19 19 20 23 26 29 31 31 31 33 34 33 33 33 32 31 30 29 25 25 24 23 21 22 16 14 15 9 16 20 29 27 30 35 30 29
Wind_Direction
11 10 21 45 56 60 61 60 62 64 65 63 58 59 56 54 52 53 53 48 45 41 39 39 38 40 47 52 61 66 64 65 62 66 69 81 101 110 116 115 116 114 113
9 26 32 44 55 62 65 62 63 64 62 60 58 56 56 58 58 50 48 46 45 45 45 44 41 39 40 45 52 63 64 59 57 63 63 84 103 118 123 122 125 122 117
34 45 31 37 49 56 60 63 63 63 63 61 53 51 54 46 45 52 46 41 38 38 38 40 43 45 44 45 46 53 50 39 34 66 69 82 89 114 128 136 135 129 119
34 54 34 32 41 51 52 54 55 56 55 52 49 50 48 45 40 37 31 29 29 30 28 30 32 39 42 41 39 43 34 37 39 76 87 85 83 89 130 143 141 134 130
39 54 37 36 40 46 47 49 52 53 51 47 45 46 43 39 37 35 32 25 22 17 16 14 16 19 27 34 32 23 20 28 43 64 40 30 39 335 186 176 154 139 141
38 44 47 39 40 45 49 52 51 52 49 45 43 41 43 41 36 31 27 21 17 11 6 0 355 357 2 3 9 7 346 353 1 356 10 351 284 276 238 218 209 190 165
43 48 50 45 42 45 48 48 49 51 49 47 47 47 48 46 42 40 35 30 21 12 5 355 351 345 339 340 339 335 333 318 313 313 310 309 306 266 237 235 211 200 189
46 51 58 57 57 50 49 49 51 54 56 54 53 52 50 48 43 37 36 30 17 10 3 355 347 341 335 328 325 326 319 310 306 293 298 291 299 291 253 227 218 213 207
53 56 58 60 59 57 51 51 54 56 56 54 53 51 50 50 45 39 32 24 17 11 8 6 352 343 335 327 323 312 314 311 301 292 291 287 296 292 281 230 225 217 215
53 52 56 58 59 60 54 57 55 53 51 49 45 41 38 40 38 33 30 27 26 25 21 13 357 342 335 330 326 316 310 305 303 295 285 283 288 290 288 243 232 230 231
53 52 52 54 55 58 55 55 53 47 42 39 37 34 30 27 26 25 27 22 19 19 16 17 15 9 351 337 335 327 317 307 304 298 290 276 280 281 277 264 244 237 232
49 51 52 55 55 57 57 53 52 48 43 39 35 30 28 27 25 18 13 7 7 5 5 5 4 6 5 357 344 334 327 321 313 304 296 286 271 273 278 267 255 245 241
62 63 61 63 62 60 57 54 52 48 45 41 36 33 31 29 26 23 17 13 8 2 357 351 348 351 352 350 347 342 332 326 322 315 303 293 284 266 273 264 255 254 249
70 66 65 65 65 62 60 55 52 47 43 41 36 31 27 25 22 19 15 12 9 5 360 357 349 341 336 332 332 327 327 326 319 310 305 304 290 268 271 265 252 253 261
73 68 66 65 63 61 60 56 52 47 44 40 37 32 27 24 20 16 13 10 7 3 359 355 349 342 336 328 324 319 313 311 312 310 304 299 297 282 266 265 257 255 257
76 70 66 63 62 60 57 53 49 45 39 35 31 27 23 19 15 11 7 3 360 358 355 350 347 341 337 331 322 317 311 303 300 299 300 296 294 287 275 263 256 255 257
74 70 66 60 56 55 52 48 43 38 32 28 24 20 17 14 9 6 2 358 355 352 348 344 340 336 332 328 324 318 312 305 298 294 289 289 290 289 281 271 264 258 257
76 66 62 57 52 49 46 42 36 31 26 22 17 13 11 7 4 1 358 355 350 348 346 344 342 337 333 330 323 315 312 308 302 293 288 284 281 282 283 277 271 263 259
74 65 57 49 43 39 37 32 29 23 20 15 10 7 4 1 359 356 354 351 348 345 344 344 339 340 334 332 326 315 310 306 300 295 288 282 280 276 275 277 278 276 267
76 65 53 42 35 28 23 20 14 14 11 7 5 3 359 357 354 351 349 347 346 343 342 342 340 336 336 333 324 317 308 302 297 291 287 283 278 275 274 273 274 277 276
77 58 43 34 28 21 17 12 6 2 360 359 357 356 355 352 351 349 345 343 343 341 339 340 340 339 340 340 337 327 313 311 302 291 287 287 285 280 276 274 275 273 274
77 59 42 33 25 20 15 11 4 354 350 351 349 350 349 347 345 343 341 340 338 335 334 334 336 336 331 338 326 314 326 323 287 299 310 303 308 319 309 292 296 299 289
79 54 40 30 20 13 6 359 356 356 347 345 346 343 343 340 338 338 336 334 331 330 327 328 328 330 319 322 325 304 314 303 340 295 295 307 306 309 314 312 304 302 302
91 59 37 22 10 4 0 359 357 353 343 335 334 332 333 335 334 333 332 330 327 325 319 318 313 311 310 305 311 285 270 288 302 308 282 305 307 309 305 303 307 305 300
105 45 21 6 3 2 356 352 349 343 336 330 330 331 331 332 333 331 330 326 323 319 313 310 308 303 296 288 284 284 285 276 270 268 289 296 297 298 305 308 300 296 296
119 22 2 356 357 352 349 346 342 337 333 331 330 331 330 326 327 327 326 323 318 313 309 305 300 291 286 280 276 270 269 266 270 273 285 290 289 295 296 295 297 299 294
Height
849 847 846 843 842 841 839 839 838 837 837 838 838 838 837 836 837 836 836 836 835 835 834 834 833 831 830 829 827 827 826 825 825 824 823 823 823 823 824 823 823 822 823
854 849 848 847 845 844 843 842 841 841 840 841 840 840 839 839 839 838 838 837 837 836 835 835 834 833 832 831 830 829 828 827 827 827 826 825 825 825 825 825 825 825 825
855 851 851 849 847 846 845 845 844 844 843 843 842 842 842 841 841 840 841 840 839 838 837 836 835 834 833 833 832 832 830 829 828 828 828 828 827 827 826 826 827 827 827
858 854 854 853 850 848 848 847 847 847 846 845 844 844 843 843 843 842 842 841 841 840 839 838 837 836 835 835 834 833 832 831 830 830 829 828 829 830 829 828 828 828 828
860 857 857 855 855 853 851 849 849 848 848 847 846 846 845 845 844 844 844 843 842 842 840 839 838 837 837 836 835 835 834 833 832 831 831 830 830 831 830 830 829 829 829
861 859 857 856 857 854 853 852 852 851 850 849 847 847 846 846 846 846 845 844 843 842 841 841 840 839 838 837 836 835 835 834 833 833 832 831 831 831 830 829 829 829 829
864 861 858 857 858 856 855 855 854 853 852 851 849 848 848 847 847 846 845 845 844 843 842 841 840 839 839 838 837 836 835 834 833 833 832 832 831 830 830 829 828 829 829
864 863 861 859 857 858 857 856 855 853 853 852 851 850 849 848 848 846 846 845 844 843 842 841 840 839 838 837 837 836 835 834 833 832 832 832 831 829 829 828 828 828 828
868 866 863 862 860 858 858 858 856 855 854 853 852 851 851 849 848 847 846 845 845 843 842 840 839 838 837 836 836 835 834 833 832 831 831 831 831 829 828 828 827 827 828
869 867 865 865 863 862 861 860 859 858 857 855 855 854 853 852 850 849 847 846 844 843 842 841 839 837 836 836 835 834 833 832 831 830 830 830 829 829 828 827 826 827 827
873 871 870 868 866 865 865 863 862 861 860 858 857 856 854 853 852 851 849 847 846 844 843 841 839 838 836 835 834 833 832 831 829 828 828 828 828 827 827 826 826 826 826
874 873 872 870 870 869 868 866 864 863 861 860 859 858 857 856 854 852 851 849 847 845 843 841 839 838 836 835 833 832 830 829 828 827 826 825 825 825 825 825 825 824 825
880 878 877 875 874 870 868 867 866 864 863 862 860 859 858 856 854 851 850 847 845 844 842 841 839 837 836 835 833 831 829 827 825 824 823 823 823 822 822 822 823 823 822
882 881 879 877 875 873 872 870 869 868 867 866 865 863 861 859 857 855 852 850 848 846 843 841 838 837 835 834 832 830 828 826 824 822 821 820 820 819 819 819 819 820 821
885 884 882 880 878 876 874 874 873 871 870 870 868 866 864 861 859 858 855 852 850 847 844 842 840 837 834 831 830 828 826 824 822 820 818 817 816 815 815 816 816 816 817
886 885 884 881 880 879 877 877 876 875 874 872 870 868 866 863 861 858 855 853 851 848 845 843 839 836 833 830 827 825 823 821 818 817 816 814 813 811 811 811 811 812 813
888 887 885 884 883 882 881 880 878 877 875 873 872 869 867 864 862 859 856 854 851 849 846 841 839 836 831 828 824 821 819 817 814 813 811 810 808 807 807 806 807 807 808
890 889 889 888 886 884 883 881 880 878 876 874 872 870 868 865 862 860 857 854 852 848 845 841 837 833 830 826 821 817 814 812 810 808 806 805 804 803 801 801 802 801 802
891 890 889 888 886 885 884 882 881 880 878 876 874 871 869 866 863 860 857 854 851 848 845 841 838 835 829 824 820 814 810 806 804 802 800 799 799 798 797 797 797 796 795
892 891 890 889 887 886 884 882 881 879 878 876 874 872 870 867 864 860 857 854 850 847 844 841 838 835 832 826 817 810 804 801 798 795 793 793 792 791 792 791 790 790 789
892 892 891 890 888 886 882 879 877 877 876 875 873 872 869 866 863 859 857 854 851 848 844 840 837 833 828 826 817 807 798 793 791 789 788 788 787 786 784 785 785 784 783
892 891 891 890 889 887 886 884 882 879 876 874 872 870 868 865 863 860 856 852 849 846 843 840 837 832 830 830 826 819 801 789 786 786 787 785 784 782 781 780 780 779 778
891 891 891 890 888 887 885 882 880 876 874 872 869 867 865 863 860 857 854 851 848 845 842 838 835 833 830 829 829 830 819 805 797 786 783 783 781 779 778 777 775 775 775
891 891 890 888 887 885 884 881 879 878 876 873 870 867 864 861 858 855 852 848 845 842 839 835 834 831 829 825 825 824 822 818 812 790 782 780 781 780 776 774 773 771 770
889 889 889 888 886 884 883 883 880 878 877 872 867 864 860 857 854 851 848 844 841 838 835 832 829 826 825 823 821 819 816 812 811 804 781 780 778 778 775 773 770 768 767
888 888 888 888 885 882 880 878 876 873 870 867 864 860 856 853 850 848 844 841 836 833 830 827 824 821 819 816 814 813 811 809 802 801 789 782 779 773 772 768 766 765 763